Wind_Speed
10 9 8 7 7 6 5 5 4 4 3 3 3 3 2 3 3 3 3 4 4 5 5 5 6 6 6 7 7 7 7 7 7 7 7 7 7 7 7 8 8 8 8
11 11 10 9 8 8 7 7 6 6 6 5 4 4 4 4 4 4 4 5 5 6 6 6 7 7 7 8 8 8 8 9 9 9 9 9 9 9 9 10 10 10 10
14 12 11 11 10 9 9 9 8 8 7 7 6 6 6 6 6 6 6 6 6 7 7 7 8 8 9 9 9 9 10 10 10 10 10 10 10 11 11 11 12 12 12
15 14 13 13 12 11 11 10 10 10 9 9 8 8 8 8 8 7 7 8 8 8 9 9 10 10 10 10 10 11 11 11 11 11 11 12 12 12 13 13 13 14 14
17 16 15 14 13 13 12 11 11 11 10 10 9 9 9 9 9 9 10 10 10 10 11 11 11 11 11 11 12 12 12 12 13 13 13 13 14 14 15 15 15 15 16
18 17 17 16 15 14 14 13 13 12 12 12 11 11 11 11 11 11 12 12 12 12 12 13 12 12 13 13 13 13 13 14 14 15 15 15 16 16 16 17 17 17 18
19 19 18 17 17 16 15 15 14 14 14 13 13 13 13 13 13 14 14 14 14 14 14 14 14 14 14 14 14 14 15 15 16 16 16 17 17 17 18 18 19 19 20
20 19 19 18 18 17 17 17 16 15 15 15 15 15 15 15 15 15 16 16 15 15 15 15 15 15 15 15 16 16 16 17 17 17 18 18 18 19 19 20 20 21 22
21 20 20 19 19 19 18 18 18 17 17 16 16 16 17 17 17 17 17 17 16 16 17 17 17 17 17 17 17 18 18 18 19 19 19 20 20 21 21 21 22 23 23
22 22 22 21 20 20 20 19 19 19 19 18 18 18 18 18 19 18 18 18 18 18 18 18 18 18 19 19 19 19 20 20 20 21 21 21 22 22 22 23 23 24 24
24 24 23 23 22 22 21 21 21 21 20 20 20 20 19 20 20 20 19 19 19 19 19 19 19 19 20 20 20 21 21 21 21 21 22 22 22 23 23 24 24 25 26
26 25 25 24 24 23 22 22 22 22 22 22 21 21 21 21 21 20 20 20 20 20 20 20 20 20 21 21 21 21 21 22 22 22 23 23 23 24 25 25 26 26 27
27 26 26 25 25 24 24 23 23 23 23 22 22 22 21 21 21 21 20 20 20 21 21 21 21 22 22 22 22 22 22 23 23 23 24 24 25 25 26 27 27 27 28
29 28 27 26 26 25 25 25 25 24 23 23 23 23 22 22 21 21 21 21 21 21 22 22 22 23 23 23 23 23 23 24 24 25 25 25 26 26 27 28 28 29 30
29 28 28 27 26 26 26 26 26 25 24 24 24 23 23 22 22 22 22 22 22 22 22 23 23 23 24 24 24 24 25 25 26 27 27 27 28 28 29 30 30 31 31
30 29 29 28 27 27 27 27 27 26 26 25 25 24 24 24 24 23 23 23 23 23 24 24 24 25 25 25 25 26 27 28 28 29 29 29 30 31 31 32 33 33 34
31 30 30 29 29 28 28 28 28 27 27 26 26 26 25 25 25 25 24 25 25 25 25 26 26 26 26 26 27 28 29 30 30 31 32 32 32 33 34 34 35 35 36
32 31 31 31 30 29 29 28 28 29 28 27 27 27 27 27 27 26 26 26 27 27 27 27 27 28 28 29 29 30 31 32 33 33 34 34 35 35 36 36 37 37 38
32 32 32 31 31 30 30 29 29 30 30 29 29 28 28 28 28 28 28 28 29 29 29 30 30 30 31 31 32 33 33 34 35 35 35 36 36 37 37 38 38 39 39
34 33 33 32 32 31 31 31 31 31 31 31 31 30 30 29 29 30 30 30 31 31 32 32 33 33 34 34 35 35 36 36 36 36 37 37 38 38 39 39 40 40 41
35 34 34 33 33 33 32 32 32 32 32 32 32 32 32 31 32 32 32 32 33 34 34 35 36 36 36 37 37 37 37 37 37 38 39 39 40 40 41 41 42 43 43
36 35 34 34 34 34 34 33 33 33 34 34 33 33 33 33 33 34 34 35 35 36 36 37 38 38 39 39 39 39 39 39 39 40 41 42 42 43 43 44 44 44 45
36 36 35 35 35 35 34 34 34 34 35 35 35 35 35 35 35 36 36 36 37 37 38 39 39 39 40 40 40 41 41 41 41 41 42 43 44 44 45 46 46 46 47
37 36 36 36 36 36 35 35 35 36 36 36 36 36 37 37 37 37 38 38 39 39 40 40 40 41 41 41 42 43 44 44 44 44 44 45 45 46 47 48 48 49 50
39 38 37 37 37 37 37 37 37 37 37 37 37 37 38 38 39 39 39 40 40 40 41 41 42 42 43 43 44 45 45 46 46 47 47 47 48 48 49 50 51 52 52
40 40 39 39 39 38 39 39 38 38 39 39 39 39 39 40 40 41 41 41 42 42 42 43 43 44 44 45 45 46 47 47 48 49 50 50 50 50 51 52 53 54 54
Wind_Direction
234 235 237 240 244 246 249 253 251 246 247 253 269 276 287 300 311 324 330 331 331 332 330 328 327 328 327 324 322 320 319 319 319 319 315 313 313 314 312 312 312 309 308
237 238 240 242 246 249 252 256 258 255 255 258 264 269 272 281 288 295 305 308 310 314 316 314 317 317 317 315 313 312 311 311 310 308 306 305 304 304 304 303 304 304 304
238 239 241 244 247 251 255 257 259 259 259 262 265 268 269 274 279 282 288 293 298 301 304 306 309 311 312 310 308 307 305 304 305 303 300 299 299 299 299 298 298 299 300
239 240 242 245 248 252 256 257 258 259 260 262 264 266 268 271 275 279 283 287 291 293 294 298 300 301 303 304 304 303 302 302 300 300 298 296 296 296 297 297 297 296 297
240 241 243 244 248 251 254 256 257 258 260 261 263 265 268 271 274 278 279 284 288 290 290 292 294 295 296 298 298 298 299 299 299 298 296 295 294 293 293 294 295 295 295
240 240 243 246 248 250 251 253 255 257 260 262 263 266 269 271 274 278 280 282 285 287 288 289 290 291 293 295 295 295 295 296 296 296 295 294 294 294 293 293 293 293 293
241 241 243 246 248 249 251 252 254 257 259 261 263 265 268 271 274 278 281 282 283 285 287 288 290 291 291 292 294 294 293 293 294 294 294 294 293 293 293 292 292 293 293
242 243 244 245 246 247 249 251 254 256 259 261 263 265 268 271 274 277 279 281 281 284 285 287 289 290 291 292 294 294 293 292 292 292 292 293 294 294 293 293 292 292 293
242 243 244 245 246 247 249 251 254 257 259 262 265 266 268 271 273 276 277 278 279 281 282 284 287 289 290 291 292 292 292 292 291 291 291 292 293 293 293 293 293 292 292
243 244 245 246 248 249 250 251 254 257 259 262 265 267 268 270 273 275 275 275 277 278 281 283 285 287 289 290 291 291 291 292 291 291 291 291 292 292 292 293 294 294 293
244 244 245 247 248 249 251 252 254 257 259 262 265 267 269 271 272 273 274 275 276 277 281 283 285 287 289 290 291 292 291 291 291 291 291 292 293 292 293 293 294 294 294
244 245 245 246 248 249 251 252 254 257 260 262 264 266 268 270 271 272 274 275 275 277 280 283 284 286 287 289 290 290 291 292 292 291 291 292 293 293 294 294 294 294 294
245 245 245 246 247 249 251 253 254 256 259 261 263 265 267 270 270 271 273 274 275 277 279 282 284 285 287 288 288 289 290 291 292 292 292 293 293 294 294 294 294 295 295
244 245 246 246 247 249 251 252 255 257 259 260 261 264 266 268 269 270 272 273 274 276 278 281 283 285 286 287 287 289 290 291 291 292 293 293 293 293 294 294 294 295 295
242 244 245 246 247 248 250 252 254 256 257 258 260 262 264 267 268 269 270 271 272 275 277 280 282 284 285 286 287 288 288 289 290 291 292 292 292 292 293 294 294 294 295
241 242 243 244 247 249 251 253 254 256 257 258 260 262 264 266 267 267 269 270 272 274 277 280 281 283 284 285 287 287 288 289 289 290 291 291 291 292 292 293 293 294 294
240 242 243 244 247 250 252 253 255 256 257 258 259 262 264 265 266 266 268 270 273 275 277 279 280 281 283 285 286 287 289 289 289 289 290 290 290 291 292 292 292 293 294
240 242 244 246 249 251 253 253 254 255 256 257 259 261 263 264 265 266 268 270 272 275 276 277 279 281 282 284 286 287 289 289 289 289 289 289 290 291 291 291 292 293 293
241 243 245 247 249 251 253 253 254 254 255 257 259 261 262 263 264 266 269 271 272 275 276 277 278 280 282 284 285 287 288 289 288 288 288 289 289 290 291 291 292 292 292
241 243 245 247 249 251 252 254 254 254 254 256 258 260 261 263 264 267 269 271 273 275 276 277 278 280 281 283 284 286 287 288 288 288 288 289 289 289 290 291 291 291 291
241 243 245 246 249 251 252 253 254 255 255 256 258 259 260 262 265 267 270 272 274 274 275 277 278 280 281 283 284 285 286 287 287 288 288 288 289 289 290 291 291 291 291
242 243 245 247 249 250 251 252 254 255 255 256 257 259 261 263 265 267 270 272 273 274 275 277 278 280 281 282 283 284 285 286 286 287 288 288 288 289 290 290 290 290 290
243 244 246 248 249 250 251 253 254 256 257 258 260 261 263 265 266 268 269 271 273 274 276 277 278 280 281 282 284 285 285 285 285 286 287 288 288 289 290 290 290 290 290
243 244 246 248 250 251 253 254 255 257 258 259 261 263 264 266 267 269 270 271 272 274 276 277 279 280 281 283 284 285 286 286 286 286 286 287 287 288 289 290 290 291 291
242 244 246 248 250 252 254 255 257 258 258 260 262 264 266 267 268 269 270 271 272 274 276 278 279 280 281 283 284 285 286 286 287 287 286 287 287 288 289 290 290 291 291
243 244 246 248 251 253 255 256 258 258 259 261 263 264 266 268 269 270 271 272 273 274 276 278 280 282 282 284 285 285 286 287 287 288 288 287 288 288 289 290 290 290 290
Height
5863 5864 5865 5866 5868 5869 5870 5870 5871 5872 5873 5873 5874 5875 5875 5876 5876 5877 5877 5877 5878 5878 5878 5878 5878 5878 5878 5878 5877 5877 5877 5877 5876 5876 5876 5875 5875 5875 5874 5874 5874 5873 5873
5861 5863 5864 5865 5866 5867 5868 5869 5870 5871 5872 5872 5873 5874 5874 5875 5875 5876 5876 5877 5877 5877 5877 5878 5877 5877 5877 5877 5876 5876 5876 5875 5875 5875 5874 5874 5874 5873 5873 5873 5872 5872 5871
5859 5861 5862 5863 5865 5866 5867 5868 5869 5869 5870 5871 5872 5872 5873 5874 5874 5875 5875 5876 5876 5876 5876 5876 5876 5876 5876 5875 5875 5875 5874 5874 5874 5873 5873 5873 5872 5872 5871 5871 5870 5870 5869
5857 5859 5860 5861 5863 5864 5865 5866 5867 5868 5869 5869 5870 5871 5872 5872 5873 5874 5874 5874 5875 5875 5875 5875 5875 5875 5874 5874 5874 5873 5873 5872 5872 5872 5871 5871 5870 5870 5869 5869 5868 5868 5867
5855 5856 5858 5859 5860 5862 5863 5864 5865 5866 5867 5868 5869 5869 5870 5871 5871 5872 5872 5873 5873 5873 5873 5873 5873 5873 5873 5872 5872 5871 5871 5871 5870 5870 5869 5869 5868 5868 5867 5867 5866 5865 5865
5852 5853 5855 5857 5858 5859 5861 5862 5863 5864 5865 5866 5867 5867 5868 5869 5869 5870 5870 5871 5871 5871 5871 5871 5871 5871 5871 5870 5870 5869 5869 5868 5868 5867 5867 5866 5866 5865 5865 5864 5863 5863 5862
5849 5851 5852 5854 5855 5857 5858 5859 5860 5861 5862 5863 5864 5865 5866 5866 5867 5867 5868 5868 5868 5868 5868 5868 5868 5868 5868 5868 5867 5867 5866 5866 5865 5865 5864 5864 5863 5862 5862 5861 5860 5860 5859
5846 5847 5849 5851 5852 5854 5855 5856 5858 5859 5860 5861 5862 5862 5863 5864 5864 5865 5865 5865 5865 5866 5866 5866 5866 5866 5865 5865 5864 5864 5863 5863 5862 5862 5861 5860 5860 5859 5858 5858 5857 5856 5855
5842 5844 5846 5847 5849 5850 5852 5853 5855 5856 5857 5858 5859 5859 5860 5861 5861 5862 5862 5862 5863 5863 5863 5863 5863 5862 5862 5862 5861 5861 5860 5859 5859 5858 5858 5857 5856 5855 5855 5854 5853 5852 5851
5838 5840 5842 5844 5845 5847 5848 5850 5851 5852 5853 5854 5855 5856 5857 5857 5858 5858 5859 5859 5859 5859 5859 5859 5859 5859 5859 5858 5858 5857 5857 5856 5855 5855 5854 5853 5852 5851 5850 5850 5849 5848 5847
5834 5836 5838 5840 5841 5843 5844 5846 5847 5849 5850 5851 5852 5853 5853 5854 5854 5855 5855 5855 5855 5855 5856 5856 5855 5855 5855 5854 5854 5853 5853 5852 5851 5851 5850 5849 5848 5847 5846 5845 5844 5843 5842
5829 5831 5833 5835 5837 5839 5840 5842 5843 5845 5846 5847 5848 5849 5849 5850 5850 5851 5851 5851 5851 5852 5852 5852 5851 5851 5851 5850 5850 5849 5849 5848 5847 5846 5845 5844 5843 5842 5841 5840 5839 5838 5837
5824 5826 5828 5830 5832 5834 5836 5837 5839 5840 5841 5842 5843 5844 5845 5845 5846 5846 5847 5847 5847 5847 5847 5847 5847 5847 5847 5846 5846 5845 5844 5843 5843 5842 5841 5840 5839 5837 5836 5835 5834 5832 5831
5819 5821 5823 5825 5827 5829 5831 5832 5834 5835 5837 5838 5839 5840 5840 5841 5841 5842 5842 5842 5843 5843 5843 5843 5843 5842 5842 5842 5841 5840 5839 5838 5838 5837 5836 5834 5833 5832 5831 5829 5828 5827 5825
5814 5816 5818 5820 5822 5824 5825 5827 5829 5830 5832 5833 5834 5835 5836 5836 5837 5837 5838 5838 5838 5838 5838 5838 5838 5837 5837 5837 5836 5835 5834 5833 5832 5831 5830 5829 5827 5826 5825 5824 5822 5821 5819
5808 5810 5813 5815 5816 5818 5820 5822 5823 5825 5826 5828 5829 5830 5831 5831 5832 5832 5833 5833 5833 5833 5833 5833 5833 5832 5832 5831 5831 5830 5829 5828 5827 5825 5824 5823 5821 5820 5819 5817 5816 5814 5812
5802 5805 5807 5809 5811 5813 5815 5816 5818 5819 5821 5822 5823 5824 5825 5826 5827 5827 5828 5828 5828 5828 5828 5828 5827 5827 5826 5826 5825 5824 5823 5821 5820 5819 5818 5816 5815 5813 5812 5810 5808 5806 5804
5796 5799 5801 5803 5805 5807 5809 5810 5812 5813 5815 5816 5817 5819 5820 5820 5821 5822 5822 5822 5822 5822 5822 5822 5821 5821 5820 5819 5819 5817 5816 5815 5813 5812 5810 5809 5807 5806 5804 5802 5800 5798 5796
5790 5792 5795 5797 5799 5801 5803 5804 5806 5807 5809 5810 5811 5812 5813 5814 5815 5815 5816 5816 5816 5816 5816 5816 5815 5815 5814 5813 5812 5811 5809 5808 5806 5805 5803 5801 5800 5798 5796 5794 5792 5790 5788
5783 5786 5788 5791 5793 5795 5796 5798 5799 5801 5802 5803 5805 5806 5807 5808 5808 5809 5809 5809 5809 5809 5809 5809 5808 5807 5806 5805 5804 5803 5802 5800 5798 5797 5795 5793 5792 5789 5787 5785 5783 5781 5778
5776 5778 5781 5784 5786 5788 5789 5791 5792 5794 5795 5796 5798 5799 5800 5801 5801 5802 5802 5802 5802 5802 5802 5801 5800 5799 5798 5797 5796 5795 5794 5792 5790 5789 5787 5785 5783 5781 5778 5776 5774 5771 5769
5768 5771 5774 5776 5778 5780 5782 5784 5785 5786 5788 5789 5790 5791 5792 5793 5794 5794 5795 5794 5794 5794 5793 5793 5792 5791 5790 5788 5787 5786 5786 5785 5782 5780 5778 5776 5773 5771 5769 5766 5764 5761 5758
5761 5764 5766 5768 5770 5772 5774 5776 5777 5779 5780 5782 5783 5784 5785 5785 5786 5786 5786 5786 5786 5786 5785 5784 5783 5782 5781 5779 5778 5777 5775 5774 5773 5772 5769 5766 5763 5761 5758 5756 5753 5750 5747
5753 5756 5758 5760 5762 5764 5766 5768 5769 5771 5772 5774 5775 5775 5776 5777 5777 5778 5778 5777 5777 5777 5776 5775 5774 5773 5771 5770 5768 5766 5765 5763 5762 5761 5760 5756 5753 5751 5748 5745 5742 5738 5735
5744 5747 5750 5752 5754 5756 5758 5760 5761 5763 5764 5765 5766 5767 5767 5768 5768 5768 5768 5768 5768 5768 5767 5765 5764 5762 5761 5759 5758 5756 5754 5752 5750 5748 5747 5746 5743 5740 5736 5733 5730 5726 5722
5735 5738 5741 5744 5746 5748 5749 5751 5752 5754 5755 5756 5757 5758 5758 5759 5759 5759 5759 5759 5758 5758 5757 5755 5753 5752 5750 5748 5747 5745 5743 5741 5738 5735 5734 5732 5730 5728 5725 5721 5717 5713 5709